Home > Weather > Kalgoorlie > Past weeks

Flag for Australia Past Weather in Kalgoorlie, Western Australia, Australia — Yesterday and Last 2 Weeks

Now
50 °F

Clear.


Feels Like: 48 °F
Forecast: 39 / 64 °F
Wind: 6 mph from Southeast

Location: Kalgoorlie Boulder Amo

Current Time: Jul 1, 2016 at 7:43:52 PM

Latest Report: Jul 1, 2016 at 7:00 PM


Visibility: N/A

Pressure: 30.33 "Hg

Humidity: 54%

Dew Point: 34 °F

Location of KalgoorlieLocation

Past Weather in Kalgoorlie — Graph

°F

Kalgoorlie Temperature Yesterday

Maximum temperature yesterday: 61 °F (at 1:30 PM)
Minimum temperature yesterday: 37 °F (at 7:00 AM)
Average temperature yesterday: 50 °F

High & Low Weather Summary for the Past Weeks

 TemperatureHumidityPressure
High66 °F (Jun 19, 3:00 PM)100% (Jun 17, 6:00 AM)30.39 "Hg (Jun 17, 6:00 AM)
Low32 °F (Jun 27, 6:00 AM)26% (Jul 1, 3:00 PM)29.74 "Hg (Jun 20, 1:30 PM)
Average50 °F70%30.09 "Hg
* Reported Jun 16 6:00 PM — Jul 1 6:00 PM, Kalgoorlie, Weather by CustomWeather, © 2016

Note: Actual official high and low records may vary slightly from our data, if they occured in-between our weather recording intervals... More about our weather records

Advertising

Kalgoorlie Weather History for the Previous 24 Hours

Scroll right to see more
 ConditionsComfort  
Time TempWeatherWind HumidityBarometerVisibility
6:00 PM
Fri, Jul 1
54 °FClear.7 mph44%30.30 "HgN/A
5:30 PM55 °FClear.6 mph41%30.30 "HgN/A
5:00 PM59 °FClear.3 mph39%30.30 "HgN/A
4:00 PM63 °FSunny.5 mph32%30.30 "HgN/A
3:00 PM64 °FSunny.7 mph26%30.30 "HgN/A
2:30 PM63 °FSunny.5 mph27%30.30 "HgN/A
2:00 PM63 °FSunny.3 mph32%30.30 "HgN/A
1:30 PM63 °FSunny.6 mph30%30.30 "Hg10 mi
1:00 PM63 °FSunny.7 mph30%30.30 "Hg10 mi
12:30 PM61 °FSunny.7 mph34%30.33 "Hg10 mi
12:00 PM59 °FSunny.3 mph36%30.36 "HgN/A
11:30 AM59 °FSunny.7 mph34%30.36 "Hg10 mi
11:00 AM59 °FSunny.5 mph34%30.39 "Hg10 mi
10:30 AM55 °FSunny.3 mph41%30.39 "Hg10 mi
10:00 AM54 °FSunny.5 mph44%30.39 "Hg10 mi
9:30 AM50 °FSunny.3 mph54%30.39 "Hg10 mi
9:00 AM46 °FSunny.5 mph57%30.39 "Hg10 mi
8:30 AM45 °FSunny.2 mph66%30.39 "Hg10 mi
8:00 AM41 °FSunny.No wind76%30.36 "HgN/A
7:30 AM34 °FSunny.No windN/A30.36 "HgN/A
7:00 AM32 °FSunny.No windN/A30.36 "HgN/A
6:30 AM34 °FSunny.1 mphN/A30.36 "HgN/A
6:00 AM32 °FSunny.No windN/A30.33 "HgN/A
5:00 AM34 °FClear.No wind87%30.33 "HgN/A
4:30 AM36 °FClear.5 mph81%30.33 "HgN/A
4:00 AM36 °FClear.6 mph81%30.33 "HgN/A
3:00 AM37 °FClear.6 mph75%30.33 "HgN/A
2:00 AM39 °FClear.5 mph75%30.33 "HgN/A
1:30 AM37 °FClear.No wind81%30.33 "HgN/A
1:00 AM39 °FClear.No wind81%30.33 "HgN/A
12:00 AM41 °FClear.6 mph70%30.33 "HgN/A
11:30 PM
Thu, Jun 30
43 °FClear.5 mph66%30.33 "HgN/A
11:00 PM43 °FClear.2 mph71%30.33 "HgN/A
10:30 PM43 °FClear.No wind71%30.33 "HgN/A
10:00 PM43 °FClear.3 mph71%30.33 "HgN/A
9:47 PM45 °FClear.3 mph61%30.33 "HgN/A
9:00 PM43 °FClear.1 mph71%30.33 "HgN/A
8:00 PM48 °FClear.6 mph54%30.30 "HgN/A
7:30 PM50 °FClear.5 mph47%30.30 "HgN/A
7:00 PM48 °FClear.3 mph58%30.27 "HgN/A
Weather by CustomWeather, © 2016

See weather overviewHow to use our weather pages